Regional Weather Roundup
Issued by NWS

Home | Current Version | Previous Version | Text Only | Print | Product List | Glossary Off
Versions: 1 2 3 4 5 6 7 8 9 10 11 12 13 14 15 16 17 18 19 20 21 22 23 24 25 26 27 28 29 30 31 32 33 34 35 36 37 38 39 40 41 42 43 44 45 46 47 48 49 50

000
ASUS43 KFSD 050110
RWRSD

WEATHER ROUNDUP FOR SOUTH DAKOTA
NATIONAL WEATHER SERVICE SIOUX FALLS SD
800 PM CDT SAT JUL 04 2015

NOTE: "FAIR" INDICATES FEW OR NO CLOUDS BELOW 12,000 FEET WITH NO
SIGNIFICANT WEATHER AND/OR OBSTRUCTIONS TO VISIBILITY.


SDZ001>005-009-010-012>017-050200-
NORTHWEST AND NORTH CENTRAL SOUTH DAKOTA

CITY           SKY/WX    TMP DP  RH WIND       PRES   REMARKS
BUFFALO          N/A     86  57  37 E9        29.71R
FAITH            N/A     89  63  41 CALM      29.72F
MOBRIDGE       PTSUNNY   84  72  67 SE12      29.71R
$$

SDZ012>016-024>037-041>051-057-063-072>074-050200-
SOUTHWEST AND SOUTH CENTRAL SOUTH DAKOTA

CITY           SKY/WX    TMP DP  RH WIND       PRES   REMARKS
RAPID CTY ARPT SUNNY     87  63  44 CALM      29.79S
PIERRE         PTSUNNY   84  71  65 SE14G21   29.69S
CUSTER         SUNNY     77  57  50 E10       29.98R
ELLSWORTH AFB  SUNNY     87  64  45 SW3       29.78F
PHILIP         MOSUNNY   88  67  49 SE9       29.70S
PINE RIDGE     SUNNY     86  61  42 S12       29.79S
SPEARFISH      LGT RAIN  86  68  54 SE3       29.85R
WINNER         FAIR      87  63  44 S16       29.76F
$$

SDZ004>011-016>023-039-040-050200-
NORTHEAST SOUTH DAKOTA

CITY           SKY/WX    TMP DP  RH WIND       PRES   REMARKS
ABERDEEN       MOSUNNY   82  67  60 S15       29.75F
WATERTOWN      SUNNY     78  65  63 S13       29.83F
BROOKINGS      SUNNY     77  64  65 S12       29.87F
SISSETON         N/A     82  65  56 S14       29.78S
$$

SDZ017-020-022-023-036>040-048>070-050200-
SOUTHEAST SOUTH DAKOTA

CITY           SKY/WX    TMP DP  RH WIND       PRES   REMARKS
SIOUX FALLS    PTSUNNY   78  65  63 S13       29.86F
HURON          SUNNY     81  67  62 SE17      29.78S
CHAMBERLAIN    SUNNY     82  70  67 SE14G20   29.76S
MITCHELL       SUNNY     81  68  64 S14G22    29.81S
YANKTON        SUNNY     79  66  65 SE10      29.83F
$$

ABBREVIATIONS USED IN REMARKS
   TC - TEMPERATURE IN CELSIUS
  WCI - WIND CHILL INDEX
   HX - HEAT INDEX
  VSB - VISIBILITY



USA.gov is the U.S. government's official web portal to all federal, state and local government web resources and services.